Skip Page Navigation
NASA JPL Caltech
NASA Logo - Jet Propulsion Laboratory + View the NASA Portal
+ Center for Near-Earth Object Studies
JPL Home Earth Solar System Stars & Galaxies Technology
JPL Solar System Dynamics
BODIES ORBITS EPHEMERIDES TOOLS PHYSICAL DATA DISCOVERY FAQ SITE MAP
JPL Small-Body Database Browser
Search: [ help ]  
103262 (2000 AM24)
Classification: Main-belt Asteroid          SPK-ID: 2103262
Ephemeris | Orbit Diagram | Orbital Elements | Mission Design | Physical Parameters | Discovery Circumstances ]

[ show orbit diagram ]
Orbital Elements at Epoch 2459200.5 (2020-Dec-17.0) TDB
Reference: JPL 21 (heliocentric ecliptic J2000)
 Element Value Uncertainty (1-sigma)   Units 
e .125056552347875 5.5822e-08  
a 2.626987312104214 1.65e-08 au
q 2.29846533579085 1.5108e-07 au
i 13.92447699877296 5.1565e-06 deg
node 284.2168281900742 2.0847e-05 deg
peri 242.0452490849003 3.0152e-05 deg
M 279.961914387584 2.5816e-05 deg
tp 2459546.263846845767
(2021-Nov-27.76384685)
0.00011328 TDB
period 1555.19692796309
4.26
1.4652e-05
4.011e-08
d
yr
n .2314819387352493 2.1809e-09 deg/d
Q 2.955509288417578 1.8564e-08 au
  Orbit Determination Parameters
   # obs. used (total)      759  
   data-arc span      7710 days (21.11 yr)  
   first obs. used      1999-12-10  
   last obs. used      2021-01-18  
   planetary ephem.      DE431  
   SB-pert. ephem.      SB431-N16  
   condition code      0  
   norm. resid. RMS      .52159  
   source      ORB  
   producer      Otto Matic  
   solution date      2021-Feb-24 08:33:53  

Additional Information
 Earth MOID = 1.34333 au 
 Jupiter MOID = 2.20231 au 
 T_jup = 3.349 
[ show covariance matrix ]

Ephemeris | Orbit Diagram | Orbital Elements | Mission Design | Physical Parameters | Discovery Circumstances ]

Physical Parameter Table
Parameter Symbol Value Units Sigma Reference Notes
absolute magnitude H 14.9   n/a MPO348138  
diameter diameter 5.430 km 0.262 urn:nasa:pds:neowise_diameters_albedos::2.0[mainbelt] (http://adsabs.harvard.edu/abs/2011ApJ...741...68M)  
geometric albedo albedo 0.079   0.014 urn:nasa:pds:neowise_diameters_albedos::2.0[mainbelt] (http://adsabs.harvard.edu/abs/2011ApJ...741...68M)  

103262 (2000 AM24)          Discovered 2000-Jan-03 by LINEAR at Socorro
Reference: 20051019/Numbers.arcLast Updated: 2005-10-26

Alternate Designations
 2000 AM24 = 2002 PJ69 
Ephemeris | Orbit Diagram | Orbital Elements | Mission Design | Physical Parameters | Discovery Circumstances ]
ABOUT SSD CREDITS/AWARDS PRIVACY/COPYRIGHT GLOSSARY LINKS
FirstGov 2021-Mar-04 19:06 UT
(server date/time)  
NASA Home Page
Site Manager:   Ryan S. Park
Webmaster  Alan B. Chamberlin